Location: Worth Mountain WMA
(34.9569°N, 81.4819°W)
Time: 16:14:17
(UTC-05:00)

Cosmos 1980 Rocket - Pass Details

Date: 18 August 2017
Orbit: 828 x 851 km, 71.0° (Epoch: 19 November)

Event Time Altitude Azimuth Distance (km) Brightness Sun altitude
Rises 20:51:45 0° 208° (SSW) 3,369 5.4 -8.8°
Reaches altitude 10° 20:54:13 10° 211° (SSW) 2,435 4.7 -9.3°
Maximum altitude 20:59:45 64° 293° (WNW) 919 2.7 -10.4°
Drops below altitude 10° 21:05:17 10° 15° (NNE) 2,438 4.7 -11.4°
Sets 21:07:45 0° 18° (NNE) 3,373 5.4 -11.8°
